Beatrice, NE

4:47 AM CST on December 08, 2019 (GMT -0600)
Beatrice Municipal

Weather History for KBIE - October, 2019

Change the Weather History Date:

Sunday, October 27, 2019

  Actual Average Record
Temperature  
Mean Temperature 40 °F -  
Max Temperature 46 °F 63 °F 84 °F (1999)
Min Temperature 35 °F 40 °F 14 °F (1997)
Degree Days  
Heating Degree Days 24    
Moisture  
Dew Point 33 °F    
Average Humidity 74    
Maximum Humidity 89    
Minimum Humidity 54    
Precipitation  
Precipitation 0.00 in - - ()
Sea Level Pressure  
Sea Level Pressure 30.01 in    
Wind  
Wind Speed 10 mph (North)    
Max Wind Speed 20 mph    
Max Gust Speed 26 mph    
Visibility 10 miles    
Events      
Averages and records for this station are not official NWS values.
T = Trace of Precipitation, MM = Missing Value Source: NWS Daily Summary

Daily Weather History Graph

Daily Weather History Graph

Search for Another Location

Airport or City:

Astronomy

Oct. 27, 2019 Rise Set
Actual Time 7:50 AM CDT 6:30 PM CDT
Civil Twilight 7:22 AM CDT 6:58 PM CDT
Nautical Twilight 6:50 AM CDT 7:30 PM CDT
Astronomical Twilight 6:19 AM CDT 8:01 PM CDT
Moon 7:00 AM CDT (10/27) 6:40 PM CDT (10/27)
Length of Visible Light 11h 35m
Length of Day
10h 39m
Waning Crescent, 0% of the Moon is Illuminated
Oct 27
Waning Crescent
Oct 27
New
Nov 4
First Quarter
Nov 12
Full
Nov 19
Last Quarter

Hourly Weather History & Observations

Time (CDT) Temp. Windchill Dew Point Humidity Pressure Visibility Wind Dir Wind Speed Gust Speed Precip Events Conditions
12:15 AM 37.6 °F 35.1 °F 31.1 °F 77% 29.76 in 10.0 mi West 3.5 mph - N/A   Clear
12:35 AM 39.0 °F - 31.6 °F 75% 29.77 in 10.0 mi Calm Calm - N/A   Clear
12:55 AM 35.6 °F 28.6 °F 31.1 °F 84% 29.78 in 10.0 mi NW 9.2 mph - N/A   Clear
1:15 AM 39.0 °F 33.4 °F 36.1 °F 89% 29.79 in 10.0 mi NNW 8.1 mph - N/A   Clear
1:35 AM 41.5 °F 38.6 °F 38.1 °F 88% 29.80 in 10.0 mi NW 4.6 mph - N/A   Clear
1:55 AM 40.1 °F 36.1 °F 37.0 °F 89% 29.81 in 10.0 mi NW 5.8 mph - N/A   Clear
2:15 AM 41.0 °F 37.1 °F 38.1 °F 89% 29.82 in 10.0 mi NNW 5.8 mph - N/A   Clear
2:35 AM 42.8 °F 37.0 °F 38.7 °F 85% 29.82 in 10.0 mi North 10.4 mph - N/A   Clear
2:55 AM 42.3 °F 36.8 °F 38.1 °F 85% 29.82 in 10.0 mi North 9.2 mph - N/A   Clear
3:15 AM 42.3 °F 37.3 °F 37.8 °F 84% 29.84 in 10.0 mi NNW 8.1 mph - N/A   Clear
3:35 AM 40.6 °F 35.4 °F 37.0 °F 87% 29.85 in 10.0 mi NNW 8.1 mph - N/A   Clear
3:55 AM 41.7 °F 36.1 °F 37.0 °F 83% 29.87 in 10.0 mi NNW 9.2 mph - N/A   Clear
4:15 AM 41.2 °F 35.5 °F 36.5 °F 83% 29.88 in 10.0 mi NNW 9.2 mph - N/A   Clear
4:35 AM 40.5 °F 35.1 °F 36.1 °F 85% 29.88 in 10.0 mi NNW 8.1 mph - N/A   Clear
4:55 AM 39.9 °F 34.5 °F 35.8 °F 85% 29.89 in 10.0 mi North 8.1 mph - N/A   Clear
5:15 AM 39.2 °F 33.6 °F 35.2 °F 86% 29.90 in 10.0 mi North 8.1 mph - N/A   Clear
5:35 AM 38.5 °F 32.7 °F 35.1 °F 87% 29.91 in 10.0 mi North 8.1 mph - N/A   Clear
5:55 AM 37.9 °F 32.1 °F 34.7 °F 88% 29.91 in 10.0 mi North 8.1 mph - N/A   Clear
6:15 AM 38.3 °F 32.5 °F 34.7 °F 87% 29.92 in 10.0 mi North 8.1 mph - N/A   Clear
6:35 AM 37.9 °F 31.5 °F 34.7 °F 88% 29.93 in 10.0 mi North 9.2 mph - N/A   Clear
6:55 AM 37.0 °F 31.6 °F 34.0 °F 89% 29.95 in 10.0 mi NNW 6.9 mph - N/A   Clear
7:15 AM 37.6 °F 31.0 °F 34.3 °F 88% 29.96 in 10.0 mi NNW 9.2 mph - N/A   Clear
7:35 AM 37.6 °F 31.0 °F 34.3 °F 88% 29.96 in 10.0 mi North 9.2 mph - N/A   Clear
7:55 AM 37.4 °F 30.8 °F 34.3 °F 89% 29.98 in 10.0 mi NNW 9.2 mph - N/A   Scattered Clouds
8:15 AM 39.9 °F 32.1 °F 36.0 °F 86% 29.99 in 10.0 mi North 13.8 mph - N/A   Overcast
8:35 AM 41.4 °F 33.6 °F 36.1 °F 82% 30.00 in 10.0 mi NNW 15.0 mph 20.7 mph N/A   Overcast
8:55 AM 42.1 °F 33.9 °F 36.3 °F 80% 30.01 in 10.0 mi North 17.3 mph - N/A   Overcast
9:15 AM 42.8 °F 35.1 °F 36.0 °F 77% 30.01 in 10.0 mi North 16.1 mph 19.6 mph N/A   Overcast
9:35 AM 43.0 °F 35.1 °F 35.6 °F 75% 30.00 in 10.0 mi North 17.3 mph 25.3 mph N/A   Overcast
9:55 AM 43.0 °F 34.8 °F 35.4 °F 75% 30.02 in 10.0 mi North 18.4 mph 23.0 mph N/A   Overcast
10:15 AM 43.0 °F 34.5 °F 35.2 °F 74% 30.04 in 10.0 mi North 19.6 mph 25.3 mph N/A   Overcast
10:35 AM 43.5 °F 35.8 °F 35.2 °F 73% 30.04 in 10.0 mi North 17.3 mph 20.7 mph N/A   Overcast
10:50 AM 43.5 °F 35.8 °F 34.2 °F 70% 30.05 in 10.0 mi North 17.3 mph 26.5 mph N/A   Overcast
11:15 AM 43.9 °F 36.8 °F 34.5 °F 70% 30.05 in 10.0 mi North 15.0 mph 21.9 mph N/A   Overcast
11:35 AM 44.8 °F 38.0 °F 34.7 °F 68% 30.06 in 10.0 mi North 15.0 mph 23.0 mph N/A   Overcast
11:55 AM 45.9 °F 39.4 °F 34.7 °F 65% 30.06 in 10.0 mi North 15.0 mph 18.4 mph N/A   Overcast
12:15 PM 45.0 °F 37.9 °F 34.5 °F 67% 30.05 in 10.0 mi North 16.1 mph - N/A   Overcast
12:35 PM 45.5 °F 38.9 °F 34.3 °F 65% 30.05 in 10.0 mi North 15.0 mph 23.0 mph N/A   Overcast
12:55 PM 45.9 °F 38.5 °F 34.2 °F 64% 30.05 in 10.0 mi North 18.4 mph 24.2 mph N/A   Overcast
1:15 PM 45.9 °F 39.1 °F 33.8 °F 63% 30.05 in 10.0 mi North 16.1 mph 26.5 mph N/A   Overcast
1:35 PM 46.0 °F 39.3 °F 33.8 °F 62% 30.05 in 10.0 mi North 16.1 mph 20.7 mph N/A   Overcast
1:55 PM 44.8 °F 38.3 °F 33.4 °F 64% 30.05 in 10.0 mi North 13.8 mph 19.6 mph N/A   Overcast
2:15 PM 44.2 °F 37.0 °F 33.4 °F 66% 30.05 in 10.0 mi North 16.1 mph 24.2 mph N/A   Overcast
2:35 PM 43.7 °F 39.1 °F 32.9 °F 66% 30.05 in 10.0 mi North 8.1 mph 17.3 mph N/A   Overcast
2:55 PM 43.9 °F 37.9 °F 32.9 °F 65% 30.05 in 10.0 mi North 11.5 mph 19.6 mph N/A   Overcast
3:15 PM 43.7 °F 36.3 °F 32.7 °F 65% 30.05 in 10.0 mi North 16.1 mph 21.9 mph N/A   Overcast
3:35 PM 43.3 °F 35.2 °F 32.9 °F 67% 30.04 in 10.0 mi North 18.4 mph - N/A   Overcast
3:55 PM 43.2 °F 35.9 °F 32.4 °F 66% 30.04 in 10.0 mi North 15.0 mph 23.0 mph N/A   Overcast
4:15 PM 42.8 °F 35.1 °F 32.2 °F 66% 30.05 in 10.0 mi North 16.1 mph 21.9 mph N/A   Overcast
4:35 PM 42.3 °F 33.8 °F 32.4 °F 68% 30.06 in 10.0 mi North 18.4 mph - N/A   Overcast
4:55 PM 41.5 °F 33.5 °F 32.4 °F 70% 30.09 in 10.0 mi North 16.1 mph - N/A   Overcast
5:15 PM 41.4 °F 34.0 °F 32.0 °F 69% 30.09 in 10.0 mi North 13.8 mph 19.6 mph N/A   Overcast
5:35 PM 41.5 °F 34.6 °F 32.0 °F 69% 30.10 in 10.0 mi North 12.7 mph 20.7 mph N/A   Overcast
5:55 PM 41.5 °F 35.9 °F 32.0 °F 69% 30.09 in 10.0 mi North 9.2 mph - N/A   Overcast
6:15 PM 41.4 °F 35.2 °F 31.8 °F 69% 30.10 in 10.0 mi North 10.4 mph - N/A   Overcast
6:35 PM 41.4 °F 36.2 °F 32.0 °F 69% 30.10 in 10.0 mi North 8.1 mph - N/A   Overcast
6:55 PM 41.2 °F 36.6 °F 32.0 °F 70% 30.11 in 10.0 mi North 6.9 mph - N/A   Overcast
7:15 PM 41.4 °F 36.2 °F 32.0 °F 69% 30.11 in 10.0 mi North 8.1 mph - N/A   Overcast
7:35 PM 41.4 °F 35.2 °F 31.8 °F 69% 30.12 in 10.0 mi North 10.4 mph - N/A   Overcast
7:55 PM 41.2 °F 33.7 °F 30.9 °F 67% 30.12 in 10.0 mi North 13.8 mph 19.6 mph N/A   Overcast
8:15 PM 40.6 °F 34.3 °F 30.7 °F 68% 30.13 in 10.0 mi North 10.4 mph 19.6 mph N/A   Overcast
8:35 PM 40.1 °F 33.2 °F 30.9 °F 70% 30.13 in 10.0 mi North 11.5 mph 21.9 mph N/A   Overcast
8:55 PM 39.4 °F 31.1 °F 31.1 °F 72% 30.14 in 10.0 mi North 15.0 mph 21.9 mph N/A   Overcast
9:15 PM 39.2 °F 30.2 °F 31.1 °F 73% 30.15 in 10.0 mi North 17.3 mph - N/A   Overcast
9:35 PM 39.2 °F 31.2 °F 30.2 °F 70% 30.15 in 10.0 mi North 13.8 mph 21.9 mph N/A   Overcast
9:55 PM 39.2 °F 30.8 °F 30.0 °F 70% 30.15 in 10.0 mi North 15.0 mph 19.6 mph N/A   Overcast
10:15 PM 38.7 °F 28.8 °F 27.9 °F 65% 30.16 in 10.0 mi North 19.6 mph 23.0 mph N/A   Overcast
10:35 PM 37.9 °F 29.6 °F 26.1 °F 62% 30.17 in 10.0 mi North 13.8 mph 20.7 mph N/A   Overcast
10:55 PM 37.8 °F 28.3 °F 25.5 °F 61% 30.17 in 10.0 mi North 17.3 mph - N/A   Overcast
11:15 PM 37.4 °F 27.8 °F 25.0 °F 61% 30.17 in 10.0 mi NNW 17.3 mph 20.7 mph N/A   Overcast
11:35 PM 37.0 °F 27.4 °F 23.0 °F 57% 30.17 in 10.0 mi NNW 17.3 mph 23.0 mph N/A   Overcast
11:55 PM 36.7 °F 26.3 °F 21.2 °F 54% 30.18 in 10.0 mi North 19.6 mph 26.5 mph N/A   Overcast